Wind_Speed
7 7 7 7 7 7 8 7 7 8 8 7 7 7 7 7 7 8 8 9 10 11 11 11 11 11 11 11 10 9 9 9 9 9 9 9 8 7 7 7 6 7 7
7 7 7 8 8 8 9 9 9 9 9 9 8 8 9 9 9 9 10 10 10 11 11 12 11 11 12 12 11 11 11 11 11 10 10 10 10 10 9 9 9 8 8
9 9 9 10 10 10 11 11 11 10 10 10 11 11 10 10 10 10 10 10 11 12 12 12 12 12 12 12 13 13 12 12 12 12 12 12 12 12 11 11 11 10 10
9 10 10 11 11 11 12 12 11 11 11 11 13 13 12 11 11 11 11 10 11 12 11 12 13 13 12 12 14 14 14 14 14 13 13 13 13 13 13 13 13 13 13
10 11 11 11 12 12 12 12 12 11 12 13 14 14 14 13 12 12 12 12 12 13 13 13 13 13 13 13 14 15 16 15 15 15 15 15 15 16 16 16 15 15 15
10 11 11 11 12 12 13 13 12 12 14 14 14 13 13 14 14 13 13 12 12 13 14 14 14 14 14 14 15 15 16 17 17 18 17 17 17 18 18 18 18 18 18
11 11 11 11 12 13 14 13 12 13 13 14 14 14 14 14 14 14 13 13 13 13 13 14 14 15 15 15 16 17 18 18 18 19 19 19 19 20 20 20 20 20 20
12 12 11 11 12 13 14 14 12 12 13 13 13 14 14 15 15 14 14 12 12 12 13 13 14 14 15 16 17 17 18 19 19 19 20 21 21 22 22 22 22 22 23
14 13 13 13 13 14 14 14 13 13 13 14 14 15 15 15 14 14 13 12 11 12 12 12 13 14 15 16 17 18 19 19 20 20 21 21 22 23 23 23 23 24 24
14 14 14 14 14 14 14 14 14 14 14 14 14 15 15 14 13 13 12 12 11 12 12 13 14 14 15 16 17 18 19 19 20 20 21 22 22 23 23 24 24 24 25
14 14 14 14 14 14 14 14 14 14 15 15 15 14 14 14 13 13 13 12 12 13 13 13 13 14 15 16 17 19 20 20 20 21 21 21 21 22 24 25 25 25 25
14 14 14 14 14 14 13 13 14 14 15 15 15 15 14 14 14 13 13 12 11 12 13 13 13 14 15 16 17 19 20 21 20 21 21 22 22 23 23 24 24 24 25
14 14 14 14 14 14 14 14 14 15 15 15 16 16 15 14 14 13 12 12 12 12 13 13 14 14 15 16 17 18 18 19 19 20 21 22 22 22 23 23 24 25 25
14 14 14 14 14 15 15 15 15 15 15 15 15 16 15 14 13 13 13 12 12 13 14 14 15 15 15 16 16 16 17 18 19 20 21 21 21 21 22 23 24 24 25
15 15 15 15 15 15 15 15 15 14 14 14 15 15 14 13 13 13 13 13 13 14 15 15 14 15 15 16 16 16 17 17 18 19 20 21 21 22 23 23 24 25 26
16 16 16 15 15 15 15 15 14 14 14 14 14 14 13 13 13 12 12 13 13 14 14 15 15 15 16 16 17 17 17 18 18 19 19 20 20 21 23 23 24 25 26
16 16 17 16 16 16 16 16 15 15 15 15 14 14 14 13 13 13 13 13 14 15 16 16 16 16 16 17 17 17 18 19 19 19 19 20 20 21 22 23 24 25 26
16 17 17 17 17 16 16 16 16 16 15 15 14 14 13 13 12 13 13 13 14 14 14 15 15 16 16 16 16 17 18 18 18 19 19 20 20 21 22 23 24 25 27
17 17 18 17 17 17 17 17 17 17 15 15 14 14 13 13 13 13 13 14 14 14 14 15 15 16 16 16 16 17 16 17 18 19 20 20 21 21 23 25 26 27 28
19 19 19 19 19 18 18 18 18 17 16 15 15 15 14 14 14 14 14 15 15 15 16 16 17 17 17 17 18 17 17 18 19 19 20 21 21 22 24 25 26 26 27
20 20 20 20 19 19 18 19 19 18 17 17 16 16 16 16 15 15 15 16 16 16 16 17 17 18 18 19 19 19 20 20 21 21 22 22 23 24 25 26 26 27 27
21 21 21 20 20 19 19 19 19 18 17 17 16 16 16 16 17 17 17 17 17 17 17 18 18 19 19 20 20 20 20 21 22 23 23 24 24 26 26 26 27 28 29
23 22 21 21 20 19 19 19 19 19 18 17 17 17 17 18 18 18 18 18 18 18 19 19 19 20 21 21 21 21 22 22 23 24 24 25 26 26 27 27 28 28 29
23 22 21 21 20 20 19 19 19 19 19 19 18 19 19 19 19 19 19 19 19 20 20 20 21 21 21 22 22 23 23 24 25 25 25 26 26 28 28 29 29 30 30
23 22 22 21 21 20 20 20 20 19 19 20 20 20 20 19 19 20 20 20 21 21 21 21 21 22 22 23 24 24 25 25 25 26 27 27 28 28 29 29 30 31 31
23 23 23 22 22 21 21 21 20 20 21 21 21 20 20 20 20 20 21 21 22 22 22 22 22 23 24 25 25 26 26 26 27 28 28 28 29 29 29 30 31 32 33
Wind_Direction
327 330 330 326 327 329 326 322 320 322 318 314 308 307 307 310 308 301 290 270 260 254 248 245 241 240 239 238 240 241 240 240 240 244 247 250 253 253 254 259 264 269 273
316 320 328 322 321 320 318 318 313 315 314 312 309 304 305 307 306 296 292 277 265 257 254 251 246 246 245 242 242 243 244 245 243 246 251 252 255 254 256 262 264 268 272
297 306 317 316 317 314 314 313 310 309 309 309 306 302 301 303 300 297 290 279 267 263 258 250 247 249 248 243 243 245 245 247 246 247 251 254 257 256 259 263 267 269 270
288 294 304 305 308 311 312 310 309 309 309 308 304 304 300 298 295 292 289 280 273 262 258 252 249 250 252 248 245 245 246 248 249 250 252 256 259 261 264 267 270 270 271
286 293 297 298 301 306 309 305 305 306 309 307 305 305 303 298 296 291 287 283 275 265 259 256 254 251 252 250 248 247 248 250 250 252 254 258 260 262 264 266 269 271 272
287 294 296 295 297 299 303 303 303 301 303 303 301 301 298 299 297 291 286 282 275 267 260 259 256 254 254 254 253 254 252 252 253 255 256 259 261 263 264 266 268 270 271
283 291 294 295 294 298 302 302 300 300 302 302 299 298 299 299 298 292 286 282 277 272 267 262 255 254 256 257 256 257 256 255 256 257 259 260 262 264 265 267 268 269 271
280 287 292 296 296 295 297 300 299 296 299 302 302 302 301 300 299 296 287 283 279 275 269 265 259 259 262 261 257 258 259 258 259 259 259 262 263 264 266 267 268 269 270
278 281 287 292 295 295 296 296 295 296 298 299 300 303 301 300 296 293 288 280 277 275 272 271 268 266 266 264 260 260 259 259 260 262 263 264 265 265 266 268 270 270 271
275 279 283 287 293 295 294 293 293 293 295 298 299 300 300 299 295 289 288 284 277 276 276 275 272 271 270 268 268 266 265 265 263 263 266 266 266 265 266 269 271 272 272
274 277 279 284 290 293 292 290 289 292 292 295 297 299 297 297 295 288 284 282 278 275 277 279 277 276 276 274 272 269 267 267 265 265 266 268 268 268 269 270 272 273 272
271 275 278 284 288 291 291 292 289 291 292 293 295 297 294 294 296 293 288 284 282 282 283 283 281 281 281 280 281 278 272 270 268 267 267 268 268 269 271 272 273 274 273
269 274 278 283 287 290 291 291 289 290 291 291 293 295 294 294 294 292 289 285 286 285 282 282 282 282 281 282 283 281 279 274 272 270 270 270 268 270 271 273 274 274 275
266 271 278 282 286 288 290 289 288 290 289 290 291 294 293 293 294 291 287 284 284 287 287 285 283 281 281 283 284 281 280 278 275 271 270 272 272 271 273 274 274 275 276
264 271 277 282 285 288 290 290 290 290 290 291 292 293 292 292 294 290 285 283 283 286 287 287 287 286 284 283 285 285 283 282 280 278 274 274 273 274 276 276 277 278 279
262 267 273 280 286 288 288 290 290 291 291 292 294 295 294 293 292 290 287 286 286 285 285 286 287 290 288 286 287 286 285 284 282 283 282 281 280 279 279 279 278 281 282
261 266 269 273 281 286 287 289 289 291 293 294 293 294 294 294 292 289 287 286 287 287 287 288 289 291 291 290 288 288 285 284 284 285 285 283 282 283 284 283 283 284 284
259 263 265 271 278 283 285 286 286 289 292 293 292 292 292 293 292 292 287 287 289 291 292 292 290 292 292 292 289 290 289 286 287 289 288 286 285 285 287 287 287 287 288
257 262 265 270 276 280 282 285 284 286 288 288 289 289 289 290 291 292 290 291 291 291 293 297 298 299 298 298 299 299 293 293 293 292 291 289 287 290 291 291 291 291 291
257 262 266 270 273 276 278 281 283 284 284 285 287 287 289 293 295 293 290 291 291 292 294 297 298 299 299 300 302 303 302 299 298 297 296 296 295 295 296 295 295 294 294
258 261 265 270 271 274 275 277 279 281 283 283 283 283 287 291 293 293 294 293 293 295 296 296 297 298 298 300 301 301 301 300 300 300 300 300 299 299 298 297 297 297 296
258 261 264 267 270 273 273 276 277 278 279 279 280 281 285 289 292 293 292 291 292 293 294 295 296 296 297 299 300 301 301 301 301 301 301 301 301 300 299 298 297 299 299
259 262 264 266 268 271 272 272 273 273 273 277 278 280 285 288 289 290 290 290 291 292 293 295 295 295 296 299 302 301 301 300 301 301 301 301 302 302 301 300 300 301 301
258 261 263 265 267 269 269 268 272 271 271 275 278 281 284 286 286 286 288 291 292 293 293 294 296 296 297 299 301 301 300 301 302 302 301 301 302 303 303 302 302 302 303
255 258 261 264 264 266 266 267 268 268 272 275 278 281 282 282 283 284 286 289 291 292 293 293 295 297 298 299 299 300 301 302 302 303 302 302 303 304 304 304 304 304 304
253 255 259 263 263 265 265 263 265 268 271 274 277 278 280 281 282 283 285 287 289 291 292 294 296 297 298 299 300 301 302 303 303 303 303 303 304 304 304 305 305 305 304
Height
5918 5917 5916 5915 5914 5913 5912 5910 5909 5908 5907 5905 5904 5903 5903 5902 5901 5900 5900 5900 5901 5901 5901 5902 5903 5903 5904 5905 5906 5906 5906 5907 5907 5908 5908 5909 5909 5909 5909 5909 5909 5908 5908
5918 5916 5915 5914 5913 5912 5911 5909 5907 5906 5905 5904 5903 5902 5901 5900 5899 5898 5897 5897 5897 5898 5899 5899 5900 5901 5901 5902 5903 5904 5905 5905 5905 5906 5906 5907 5908 5907 5907 5907 5907 5907 5906
5917 5916 5914 5913 5912 5911 5909 5907 5906 5904 5903 5902 5901 5900 5899 5898 5897 5896 5895 5894 5894 5895 5896 5897 5897 5898 5898 5899 5900 5901 5902 5903 5903 5903 5904 5905 5905 5905 5905 5905 5905 5905 5904
5916 5914 5913 5911 5910 5909 5907 5906 5904 5903 5901 5900 5899 5897 5897 5896 5894 5893 5893 5892 5891 5891 5893 5893 5894 5895 5896 5897 5897 5898 5899 5900 5900 5901 5901 5902 5902 5902 5902 5903 5902 5902 5901
5914 5913 5911 5910 5909 5908 5906 5904 5903 5901 5900 5898 5897 5896 5894 5893 5892 5891 5890 5889 5889 5889 5889 5890 5891 5892 5893 5893 5894 5895 5896 5896 5897 5897 5898 5898 5899 5899 5899 5899 5899 5898 5898
5912 5911 5909 5908 5907 5906 5904 5902 5901 5900 5898 5896 5895 5894 5892 5891 5890 5889 5888 5887 5886 5886 5886 5887 5887 5888 5889 5890 5890 5891 5892 5892 5893 5894 5894 5894 5895 5895 5895 5895 5895 5894 5894
5909 5908 5907 5906 5905 5903 5902 5900 5898 5897 5896 5894 5892 5891 5890 5889 5887 5886 5885 5884 5884 5883 5883 5883 5884 5885 5886 5886 5887 5887 5888 5888 5889 5889 5889 5890 5890 5890 5890 5891 5890 5890 5890
5907 5906 5905 5903 5902 5901 5899 5898 5896 5895 5894 5892 5890 5889 5887 5886 5885 5883 5882 5881 5881 5881 5881 5881 5881 5881 5881 5882 5883 5883 5883 5884 5884 5884 5885 5885 5885 5885 5885 5886 5885 5885 5885
5903 5903 5902 5901 5900 5898 5897 5895 5894 5893 5891 5890 5888 5887 5885 5884 5882 5880 5879 5878 5878 5878 5878 5878 5878 5877 5877 5877 5878 5879 5879 5879 5880 5880 5880 5880 5880 5880 5880 5880 5880 5880 5880
5900 5900 5899 5898 5897 5896 5894 5893 5892 5890 5889 5887 5886 5884 5882 5880 5879 5878 5876 5876 5876 5876 5875 5875 5874 5874 5874 5874 5874 5874 5874 5874 5875 5875 5875 5875 5875 5875 5875 5875 5874 5874 5874
5897 5897 5896 5895 5894 5893 5891 5890 5888 5887 5886 5884 5883 5881 5879 5878 5876 5875 5874 5873 5873 5873 5872 5872 5871 5871 5870 5870 5870 5869 5869 5869 5869 5870 5870 5869 5869 5869 5869 5869 5868 5868 5867
5894 5893 5893 5892 5891 5890 5888 5887 5885 5884 5883 5881 5879 5878 5876 5875 5874 5872 5871 5871 5870 5870 5869 5869 5868 5867 5867 5866 5865 5865 5864 5864 5864 5864 5864 5864 5863 5863 5863 5862 5862 5861 5860
5891 5890 5890 5889 5888 5887 5885 5884 5882 5881 5879 5878 5876 5875 5873 5872 5870 5869 5868 5867 5867 5867 5866 5865 5865 5864 5863 5862 5861 5860 5860 5859 5859 5858 5858 5858 5857 5857 5857 5856 5856 5855 5854
5888 5887 5887 5886 5885 5884 5882 5881 5879 5877 5876 5874 5873 5871 5870 5868 5867 5866 5865 5865 5864 5864 5863 5862 5861 5860 5859 5858 5857 5856 5856 5855 5854 5853 5853 5852 5851 5851 5851 5850 5850 5849 5848
5884 5884 5883 5883 5882 5880 5879 5877 5876 5874 5873 5871 5870 5868 5867 5865 5864 5863 5863 5862 5862 5861 5860 5859 5858 5857 5856 5855 5853 5852 5852 5851 5850 5848 5848 5847 5846 5845 5845 5844 5844 5842 5841
5880 5880 5880 5879 5878 5877 5876 5874 5873 5871 5870 5868 5867 5865 5864 5862 5861 5861 5860 5859 5859 5858 5857 5856 5855 5854 5852 5851 5850 5849 5848 5846 5845 5844 5843 5842 5841 5840 5839 5838 5837 5836 5834
5876 5876 5876 5876 5875 5873 5872 5871 5869 5868 5867 5865 5864 5862 5861 5859 5858 5858 5857 5857 5856 5855 5854 5853 5851 5850 5848 5847 5846 5844 5843 5842 5841 5839 5838 5837 5836 5835 5834 5832 5831 5829 5827
5872 5872 5872 5872 5871 5870 5868 5867 5866 5865 5864 5862 5861 5859 5858 5857 5856 5855 5854 5854 5853 5852 5851 5849 5848 5846 5845 5843 5842 5841 5839 5838 5836 5835 5834 5832 5831 5829 5828 5826 5824 5822 5820
5868 5868 5868 5867 5867 5866 5865 5864 5863 5862 5860 5859 5858 5857 5856 5855 5854 5853 5852 5851 5850 5849 5848 5846 5845 5843 5842 5840 5838 5837 5835 5833 5832 5830 5829 5827 5825 5824 5822 5820 5818 5816 5813
5863 5863 5863 5863 5863 5862 5861 5860 5859 5858 5857 5856 5855 5854 5853 5852 5851 5850 5849 5848 5847 5846 5845 5843 5842 5840 5838 5837 5835 5834 5832 5830 5828 5826 5824 5822 5820 5818 5816 5814 5811 5808 5806
5858 5858 5858 5858 5858 5857 5857 5856 5855 5854 5853 5853 5852 5851 5850 5849 5848 5847 5846 5845 5844 5842 5841 5840 5838 5836 5835 5833 5831 5829 5828 5826 5823 5821 5819 5817 5815 5812 5810 5807 5804 5802 5799
5853 5853 5853 5853 5853 5852 5852 5851 5850 5850 5849 5849 5848 5847 5847 5846 5844 5843 5842 5841 5840 5839 5837 5836 5834 5832 5831 5829 5827 5825 5823 5821 5819 5816 5814 5811 5809 5806 5803 5800 5798 5795 5792
5848 5848 5848 5848 5848 5847 5846 5846 5846 5845 5845 5845 5844 5843 5843 5842 5840 5839 5838 5837 5836 5834 5833 5831 5830 5828 5826 5824 5822 5820 5818 5816 5813 5810 5808 5805 5803 5800 5797 5794 5790 5787 5784
5842 5842 5843 5843 5842 5842 5842 5842 5841 5841 5841 5840 5840 5839 5838 5837 5836 5835 5834 5833 5832 5830 5829 5827 5825 5823 5821 5819 5817 5815 5812 5810 5807 5804 5802 5799 5796 5793 5790 5786 5783 5780 5776
5836 5836 5837 5837 5837 5837 5836 5837 5837 5836 5836 5835 5835 5834 5833 5832 5831 5830 5829 5828 5827 5825 5824 5822 5820 5818 5816 5814 5812 5809 5806 5804 5801 5798 5795 5792 5789 5785 5782 5779 5775 5772 5768
5829 5830 5831 5831 5831 5831 5831 5831 5831 5831 5831 5830 5830 5829 5828 5827 5826 5825 5824 5823 5822 5820 5819 5817 5815 5812 5810 5808 5805 5803 5800 5797 5794 5792 5788 5785 5781 5778 5775 5771 5767 5764 5760